Погода в Макени

Сьерра-Леоне     8°53′00″N   12°02′38″W
темп.,
°C
ветер,
м/с
пор.,
м/с
влажн.,
%
обл.,
%
осадки,
мм/ч
давл.,
гПа
погр.,
м
5 декабря, вс
вс500:00+24ююз118883 0.1 101215
03:00+23в129935 0.8 101153
06:00+23ссв009820 0.9 101113
09:00+26ссв128812 0.7 1013321
12:00+33с144722 0.7 10111716
15:00+35ссв252526 0.0 10082667
18:00+29ю11485 0.0 100914
21:00+25ююз11745 0.0 101215
6 декабря, пн
пн600:00+24юв11855 0.0 101212
03:00+23ююв11915 0.0 101113
06:00+22в11944 0.0 101113
09:00+26в00771 0.0 1013346
12:00+32зсз12502 0.0 10121599
15:00+34сз133729 0.0 10082254
18:00+29зюз226077 0.0 100947
21:00+25ююв11682 0.0 101123
7 декабря, вт
вт700:00+24ююв118333 0.0 101212
03:00+23юв00925 0.0 101113
06:00+22вюв119637 0.0 101218
09:00+26в008044 0.0 1013346
12:00+30сз225636 0.1 10121431
15:00+32зсз24475 0.0 10091631
18:00+28з24655 0.0 1009137
21:00+25всв11715 0.0 101111
8 декабря, ср
ср800:00+23ююз11795 0.0 101213
03:00+22ююв00899 0.0 101112
06:00+21в11965 0.0 101112
09:00+26юв01775 0.0 1013335
12:00+32сз12481 0.0 10121351
15:00+35ссз14320 0.0 10082210
18:00+29юз11520 0.0 100916
21:00+25в11650 0.0 101111
9 декабря, чт
чт900:00+23ююз11770 0.0 101212
03:00+22юв00904 0.0 101012
06:00+21в11963 0.0 101112
09:00+26ююв117923 0.0 1012361
12:00+32зсз115028 0.0 10101309
15:00+34з13382 0.0 10072075
18:00+29зюз245915 0.0 100787
21:00+25ю11691 0.0 101030